When you browse on this site, cookies collect data to enhance your experience and personalize the content and advertising you see.
Visit our Privacy Policy to learn more. By continuing to use the site, you agree to this use of cookies and data.
  • In Deutschland
  • Länderverzeichnis
  • Für 7 Tage
  • Wassertemperatur
  • Satellitenkarten
  • Wetterkarte
  • Widgets
  • user-avatar
    Anmelden

    Stündliche Wetter Jerônimo Monteiro

    Heute, 20 Januar, Sonntag

    Zeit Temperatur Niederschläge Wind Luftdruck Luftfeuchtigkeit
    00:00 +25°C° 0 mm 2 m/S 748 mmHg 86%
    01:00 +25°C° 0 mm 2 m/S 748 mmHg 86%
    02:00 +25°C° 0 mm 2 m/S 748 mmHg 86%
    03:00 +25°C° 0 mm 2 m/S 748 mmHg 87%
    04:00 +25°C° 0 mm 2 m/S 748 mmHg 86%
    05:00 +25°C° 0 mm 2 m/S 749 mmHg 85%
    06:00 +25°C° 0 mm 2 m/S 749 mmHg 84%
    07:00 +27°C° 0 mm 2 m/S 749 mmHg 76%
    08:00 +29°C° 0 mm 3 m/S 749 mmHg 68%
    09:00 +31°C° 0 mm 3 m/S 750 mmHg 60%
    10:00 +34°C° 0 mm 3 m/S 749 mmHg 54%
    11:00 +36°C° 0 mm 2 m/S 749 mmHg 47%
    12:00 +38°C° 0 mm 2 m/S 749 mmHg 41%
    13:00 +38°C° 0 mm 2 m/S 749 mmHg 40%
    14:00 +38°C° 0 mm 2 m/S 748 mmHg 39%
    15:00 +38°C° 0 mm 2 m/S 748 mmHg 39%
    16:00 +35°C° 0 mm 1 m/S 748 mmHg 47%
    17:00 +33°C° 0 mm 1 m/S 748 mmHg 55%
    18:00 +31°C° 0 mm 1 m/S 748 mmHg 63%
    19:00 +30°C° 0 mm 1 m/S 748 mmHg 65%
    20:00 +29°C° 0 mm 2 m/S 749 mmHg 68%
    21:00 +27°C° 0 mm 2 m/S 749 mmHg 70%
    22:00 +27°C° 0 mm 2 m/S 750 mmHg 72%
    23:00 +27°C° 0 mm 2 m/S 750 mmHg 74%

    Morgen, 21 Januar, Montag

    Zeit Temperatur Niederschläge Wind Luftdruck Luftfeuchtigkeit
    00:00 +26°C° 0 mm 2 m/S 750 mmHg 77%
    01:00 +26°C° 0 mm 2 m/S 750 mmHg 80%
    02:00 +25°C° 0 mm 2 m/S 750 mmHg 83%
    03:00 +25°C° 0 mm 2 m/S 749 mmHg 86%
    04:00 +25°C° 0 mm 2 m/S 750 mmHg 85%
    05:00 +25°C° 0 mm 2 m/S 750 mmHg 85%
    06:00 +25°C° 0 mm 2 m/S 750 mmHg 85%
    07:00 +27°C° 0 mm 2 m/S 750 mmHg 74%
    08:00 +30°C° 0 mm 2 m/S 751 mmHg 64%
    09:00 +32°C° 0 mm 2 m/S 751 mmHg 54%
    10:00 +35°C° 0 mm 2 m/S 751 mmHg 47%
    11:00 +37°C° 0 mm 2 m/S 751 mmHg 39%
    12:00 +39°C° 0 mm 1 m/S 750 mmHg 32%
    13:00 +39°C° 0 mm 1 m/S 750 mmHg 31%
    14:00 +39°C° 0 mm 1 m/S 749 mmHg 31%
    15:00 +39°C° 0 mm 1 m/S 748 mmHg 31%
    16:00 +35°C° 0 mm 1 m/S 748 mmHg 40%
    17:00 +33°C° 0 mm 1 m/S 748 mmHg 50%
    18:00 +31°C° 0 mm 1 m/S 748 mmHg 60%
    19:00 +29°C° 0 mm 1 m/S 749 mmHg 63%
    20:00 +28°C° 0 mm 1 m/S 750 mmHg 67%
    21:00 +26°C° 0 mm 1 m/S 750 mmHg 70%
    22:00 +26°C° 0 mm 2 m/S 750 mmHg 71%
    23:00 +26°C° 0 mm 2 m/S 750 mmHg 72%

    übermorgen, 22 Januar, Dienstag

    Zeit Temperatur Niederschläge Wind Luftdruck Luftfeuchtigkeit
    00:00 +25°C° 0 mm 2 m/S 750 mmHg 73%
    01:00 +25°C° 0 mm 2 m/S 750 mmHg 76%
    02:00 +25°C° 0 mm 2 m/S 750 mmHg 80%
    03:00 +24°C° 0 mm 2 m/S 749 mmHg 83%
    04:00 +24°C° 0 mm 2 m/S 749 mmHg 84%
    05:00 +24°C° 0 mm 2 m/S 750 mmHg 85%
    06:00 +24°C° 0 mm 2 m/S 750 mmHg 86%
    07:00 +27°C° 0 mm 2 m/S 750 mmHg 76%
    08:00 +30°C° 0 mm 2 m/S 751 mmHg 66%
    09:00 +32°C° 0 mm 2 m/S 751 mmHg 57%
    10:00 +34°C° 0 mm 1 m/S 751 mmHg 51%
    11:00 +36°C° 0 mm 1 m/S 751 mmHg 45%
    12:00 +39°C° 0 mm 1 m/S 750 mmHg 39%
    13:00 +37°C° 0 mm 1 m/S 750 mmHg 42%
    14:00 +36°C° 0 mm 1 m/S 749 mmHg 46%
    15:00 +35°C° 0 mm 1 m/S 748 mmHg 49%
    16:00 +34°C° 0 mm 1 m/S 748 mmHg 55%
    17:00 +32°C° 0 mm 1 m/S 748 mmHg 61%
    18:00 +31°C° 0 mm 1 m/S 748 mmHg 67%
    19:00 +30°C° 0 mm 1 m/S 749 mmHg 72%
    20:00 +28°C° 0 mm 1 m/S 749 mmHg 77%
    21:00 +27°C° 0 mm 1 m/S 750 mmHg 82%
    22:00 +26°C° 0 mm 1 m/S 750 mmHg 83%
    23:00 +26°C° 0 mm 1 m/S 750 mmHg 84%

    23 Januar, Mittwoch

    Zeit Temperatur Niederschläge Wind Luftdruck Luftfeuchtigkeit
    00:00 +25°C° 0 mm 1 m/S 750 mmHg 86%
    01:00 +25°C° 0 mm 1 m/S 750 mmHg 86%
    02:00 +25°C° 0 mm 1 m/S 750 mmHg 87%
    03:00 +24°C° 0 mm 1 m/S 749 mmHg 87%
    04:00 +24°C° 0 mm 2 m/S 750 mmHg 86%
    05:00 +24°C° 0 mm 2 m/S 750 mmHg 85%
    06:00 +23°C° 0 mm 2 m/S 750 mmHg 83%
    07:00 +26°C° 0 mm 2 m/S 750 mmHg 71%
    08:00 +29°C° 0 mm 2 m/S 751 mmHg 59%
    09:00 +32°C° 0 mm 2 m/S 751 mmHg 46%
    10:00 +34°C° 0 mm 1 m/S 751 mmHg 41%
    11:00 +36°C° 0 mm 1 m/S 751 mmHg 35%
    12:00 +39°C° 0 mm 1 m/S 751 mmHg 29%
    13:00 +39°C° 0 mm 1 m/S 750 mmHg 30%
    14:00 +39°C° 0 mm 1 m/S 749 mmHg 31%
    15:00 +37°C° 0 mm 1 m/S 748 mmHg 33%
    16:00 +36°C° 0 mm 2 m/S 748 mmHg 43%
    17:00 +34°C° 0 mm 2 m/S 748 mmHg 53%
    18:00 +31°C° 0 mm 2 m/S 748 mmHg 63%
    19:00 +30°C° 0 mm 2 m/S 749 mmHg 69%
    20:00 +28°C° 0 mm 1 m/S 749 mmHg 75%
    21:00 +26°C° 0 mm 1 m/S 749 mmHg 81%
    22:00 +26°C° 0 mm 1 m/S 749 mmHg 82%
    23:00 +26°C° 0 mm 1 m/S 749 mmHg 83%

    24 Januar, Donnerstag

    Zeit Temperatur Niederschläge Wind Luftdruck Luftfeuchtigkeit
    00:00 +25°C° 0 mm 2 m/S 749 mmHg 84%
    01:00 +25°C° 0 mm 2 m/S 749 mmHg 86%
    02:00 +25°C° 0 mm 1 m/S 749 mmHg 87%
    03:00 +25°C° 0 mm 1 m/S 748 mmHg 89%
    04:00 +25°C° 0 mm 1 m/S 748 mmHg 89%
    05:00 +25°C° 0 mm 1 m/S 749 mmHg 88%
    06:00 +25°C° 0 mm 1 m/S 749 mmHg 88%
    07:00 +28°C° 0 mm 1 m/S 749 mmHg 76%
    08:00 +31°C° 0 mm 1 m/S 749 mmHg 65%
    09:00 +33°C° 0 mm 1 m/S 750 mmHg 54%
    10:00 +36°C° 0 mm 2 m/S 749 mmHg 48%
    11:00 +37°C° 0 mm 2 m/S 749 mmHg 43%
    12:00 +39°C° 0 mm 2 m/S 749 mmHg 38%
    13:00 +38°C° 0 mm 2 m/S 748 mmHg 40%
    14:00 +38°C° 0 mm 2 m/S 747 mmHg 41%
    15:00 +38°C° 0 mm 2 m/S 746 mmHg 43%
    16:00 +36°C° 0 mm 2 m/S 747 mmHg 49%
    17:00 +35°C° 0 mm 2 m/S 747 mmHg 55%
    18:00 +32°C° 0 mm 1 m/S 747 mmHg 61%
    19:00 +31°C° 0 mm 1 m/S 747 mmHg 65%
    20:00 +29°C° 0 mm 2 m/S 748 mmHg 69%
    21:00 +27°C° 0 mm 2 m/S 748 mmHg 74%
    22:00 +27°C° 0 mm 2 m/S 748 mmHg 76%
    23:00 +26°C° 0 mm 2 m/S 748 mmHg 79%

    25 Januar, Freitag

    Zeit Temperatur Niederschläge Wind Luftdruck Luftfeuchtigkeit
    00:00 +26°C° 0 mm 2 m/S 748 mmHg 81%
    01:00 +26°C° 0 mm 2 m/S 748 mmHg 82%
    02:00 +25°C° 0 mm 2 m/S 748 mmHg 83%
    03:00 +25°C° 0 mm 2 m/S 747 mmHg 83%
    04:00 +25°C° 0 mm 2 m/S 748 mmHg 82%
    05:00 +25°C° 0 mm 2 m/S 748 mmHg 82%
    06:00 +24°C° 0 mm 2 m/S 748 mmHg 81%
    07:00 +27°C° 0 mm 2 m/S 749 mmHg 69%
    08:00 +30°C° 0 mm 2 m/S 749 mmHg 57%
    09:00 +33°C° 0 mm 1 m/S 749 mmHg 45%
    10:00 +35°C° 0 mm 1 m/S 749 mmHg 40%
    11:00 +37°C° 0 mm 1 m/S 749 mmHg 36%
    12:00 +39°C° 0 mm 1 m/S 749 mmHg 31%
    13:00 +37°C° 0 mm 1 m/S 748 mmHg 34%
    14:00 +37°C° 0 mm 2 m/S 748 mmHg 36%
    15:00 +37°C° 0 mm 2 m/S 747 mmHg 39%
    16:00 +35°C° 0.3 mm 2 m/S 748 mmHg 48%
    17:00 +32°C° 0.3 mm 2 m/S 748 mmHg 57%
    18:00 +30°C° 0.3 mm 2 m/S 748 mmHg 66%
    19:00 +29°C° 0.5 mm 2 m/S 749 mmHg 72%
    20:00 +27°C° 0.5 mm 1 m/S 749 mmHg 78%
    21:00 +26°C° 0.5 mm 1 m/S 750 mmHg 84%
    22:00 +26°C° 0 mm 1 m/S 750 mmHg 87%
    23:00 +25°C° 0 mm 1 m/S 749 mmHg 89%
    Mehr zeigen